This is the latest recevied weather packets stored in our database for station/object KI5NXU. If no packets are shown the sender has not sent any weather packets the latest 10 day(s).
| Time | Temp. | Humidity | Pressure | Rain* | Wind** | Luminosity | Snow |
|---|---|---|---|---|---|---|---|
| 1777904933 | 20° C | 72% | 1010.9 hPa | 0 mm | - | 326 W/m² | - |
| 1777904629 | 20° C | 71% | 1011.1 hPa | 0 mm | - | 346 W/m² | - |
| 1777904327 | 20° C | 72% | 1011 hPa | 0 mm | - | 315 W/m² | - |
| 1777904024 | 20° C | 72% | 1011 hPa | 0 mm | - | 308 W/m² | - |
| 1777903721 | 20° C | 72% | 1011.2 hPa | 0 mm | - | 323 W/m² | - |
| 1777903416 | 19.44° C | 73% | 1011.2 hPa | 0 mm | - | 220 W/m² | - |
| 1777903113 | 19.44° C | 73% | 1011 hPa | 0 mm | - | 221 W/m² | - |
| 1777902810 | 19.44° C | 74% | 1010.9 hPa | 0 mm | - | 225 W/m² | - |
| 1777902507 | 18.89° C | 75% | 1010.7 hPa | 0 mm | - | 251 W/m² | - |
| 1777902204 | 18.89° C | 75% | 1010.9 hPa | 0 mm | - | 216 W/m² | - |
| 1777901902 | 18.33° C | 75% | 1010.9 hPa | 0 mm | - | 201 W/m² | - |
| 1777901600 | 17.78° C | 76% | 1011 hPa | 0 mm | - | 198 W/m² | - |
| 1777901297 | 17.78° C | 77% | 1010.9 hPa | 0 mm | - | 135 W/m² | - |
| 1777900994 | 17.22° C | 78% | 1011.1 hPa | 0 mm | - | 145 W/m² | - |
| 1777900692 | 16.67° C | 79% | 1011.1 hPa | 0 mm | - | 104 W/m² | - |
| 1777900388 | 16.11° C | 81% | 1011 hPa | 0 mm | - | 114 W/m² | - |
| 1777900086 | 15.56° C | 82% | 1010.9 hPa | 0 mm | - | 76 W/m² | - |
| 1777899781 | 15.56° C | 83% | 1010.9 hPa | 0 mm | - | 80 W/m² | - |
| 1777899478 | 15.56° C | 82% | 1010.8 hPa | 0 mm | - | 75 W/m² | - |
| 1777899176 | 15° C | 82% | 1010.9 hPa | 0 mm | - | 71 W/m² | - |
| 1777898874 | 15° C | 82% | 1010.7 hPa | 0 mm | - | 65 W/m² | - |
| 1777898571 | 15° C | 83% | 1010.7 hPa | 0 mm | - | 58 W/m² | - |
| 1777898268 | 14.44° C | 83% | 1011 hPa | 0 mm | - | 52 W/m² | - |
| 1777897965 | 14.44° C | 83% | 1010.9 hPa | 0 mm | - | 41 W/m² | - |
| 1777897661 | 13.89° C | 83% | 1010.9 hPa | 0 mm | - | 41 W/m² | - |
* Rain latest hour (hover to see other rain measurements)
** Current wind speed in m/s (hover to see current wind gust speed)